TIME,�g�[�{�C���[-���� [L],�t���O,�����{�C���[-���� [L],�t���O,�g�[�{�C���[-���� [MJ/h],�t���O,�����{�C���[-���� [MJ/h],�t���O
2003/4/1 0:00,0.112378038,0,0,0,16.497096,0,0,0
2003/4/1 0:15,0.096921989,0,0,0,14.228148,0,0,0
2003/4/1 0:30,0.072771989,0,0.009016022,0,10.682928,0,1.323552,0
2003/4/1 0:45,0.096116975,0,0,0,14.109972,0,0,0
2003/4/1 1:00,0.102878992,0,0.064561063,0,15.102636,0,9.477564,0
2003/4/1 1:15,0.104811008,0,0,0,15.386256,0,0,0
2003/4/1 1:30,0.086778965,0,0,0,12.739152,0,0,0
2003/4/1 1:45,0.105776975,0,0,0,15.52806,0,0,0
2003/4/1 2:00,0.105133079,0,0,0,15.433536,0,0,0
2003/4/1 2:15,0.087423025,0,0,0,12.8337,0,0,0
2003/4/1 2:30,0.103362016,0,0,0,15.173544,0,0,0
2003/4/1 2:45,0.110124033,0,0,0,16.166208,0,0,0
2003/4/1 3:00,0.087905967,0,0,0,12.904596,0,0,0
2003/4/1 3:15,0.110929046,0,0,0,16.284384,0,0,0
2003/4/1 3:30,0.104327984,0,0,0,15.315348,0,0,0
2003/4/1 3:45,0.104811008,0,0,0,15.386256,0,0,0
2003/4/1 4:00,0.086778965,0,0,0,12.739152,0,0,0
2003/4/1 4:15,0.109801962,0,0,0,16.118928,0,0,0
2003/4/1 4:30,0.08903297,0,0,0,13.07004,0,0,0
2003/4/1 4:45,0.105294033,0,0.01239703,0,15.457164,0,1.819884,0
2003/4/1 5:00,0.105293951,0,0,0,15.457152,0,0,0
2003/4/1 5:15,0.104489019,0,0,0,15.338988,0,0,0
2003/4/1 5:30,0.104005913,0,0,0,15.268068,0,0,0
2003/4/1 5:45,0.092575014,0,0,0,13.590012,0,0,0
2003/4/1 6:00,0.105293951,0,0,0,15.457152,0,0,0
2003/4/1 6:15,0.105132997,0,0,0,15.433524,0,0,0
2003/4/1 6:30,0.104328065,0,0,0,15.31536,0,0,0
2003/4/1 6:45,0.095312044,0,0,0,13.991808,0,0,0
2003/4/1 7:00,0.087261989,0,0,0,12.81006,0,0,0
2003/4/1 7:15,0.068103025,0,0,0,9.997524,0,0,0
2003/4/1 7:30,0.099820054,0,0.02141297,0,14.653584,0,3.143424,0
2003/4/1 7:45,0.061824033,0,0,0,9.075768,0,0,0
2003/4/1 8:00,0.047172997,0,0,0,6.924996,0,0,0
2003/4/1 8:15,0.095472997,0,0,0,14.015436,0,0,0
2003/4/1 8:30,0.05731594,0,0.016905041,0,8.41398,0,2.48166,0
2003/4/1 8:45,0.063111989,0,0,0,9.26484,0,0,0
2003/4/1 9:00,0.052325068,0,0,0,7.68132,0,0,0
2003/4/1 9:15,0.068424932,0,0.306061063,0,10.04478,0,44.929764,0
2003/4/1 9:30,0.097727003,0,0.073577003,0,14.346324,0,10.801104,0
2003/4/1 9:45,0.074060109,0,0,0,10.872024,0,0,0
2003/4/1 10:00,0.075670054,0,0.005151989,0,11.108364,0,0.756312,0
2003/4/1 10:15,0.056349973,0,0,0,8.272176,0,0,0
2003/4/1 10:30,0.044597003,0,0,0,6.54684,0,0,0
2003/4/1 10:45,0.081627057,0,0,0,11.982852,0,0,0
2003/4/1 11:00,0.054418038,0,0.005795967,0,7.988568,0,0.850848,0
2003/4/1 11:15,0.053452071,0,0,0,7.846764,0,0,0
2003/4/1 11:30,0.060858065,0,0.005473978,0,8.933964,0,0.80358,0
2003/4/1 11:45,0.050393052,0,0,0,7.3977,0,0,0
2003/4/1 12:00,0.047173079,0,0,0,6.925008,0,0,0
2003/4/1 12:15,0.080177984,0,0.020930027,0,11.770128,0,3.072528,0
2003/4/1 12:30,0.050875995,0,0,0,7.468596,0,0,0
2003/4/1 12:45,0.053451989,0,0.058281989,0,7.846752,0,8.555796,0
2003/4/1 13:00,0.062628965,0,0.12558,0,9.193932,0,18.435144,0
2003/4/1 13:15,0.065044005,0,0,0,9.54846,0,0,0
2003/4/1 13:30,0.052003079,0,0,0,7.634052,0,0,0
2003/4/1 13:45,0.062306975,0,0,0,9.146664,0,0,0
2003/4/1 14:00,0.047334033,0,0,0,6.948636,0,0,0
2003/4/1 14:15,0.048460954,0,0,0,7.114068,0,0,0
2003/4/1 14:30,0.069552016,0,0,0,10.210236,0,0,0
2003/4/1 14:45,0.071001008,0,0.056994033,0,10.422948,0,8.366724,0
2003/4/1 15:00,0.035742016,0,0.000321989,0,5.246928,0,0.047268,0
2003/4/1 15:15,0.07035703,0,0,0,10.328412,0,0,0
2003/4/1 15:30,0.085652044,0,0,0,12.57372,0,0,0
2003/4/1 15:45,0.07100109,0,0,0,10.42296,0,0,0
2003/4/1 16:00,0.068908038,0,0.010303978,0,10.1157,0,1.512624,0
2003/4/1 16:15,0.071161962,0,0.009981989,0,10.446576,0,1.465356,0
2003/4/1 16:30,0.05860406,0,0,0,8.603076,0,0,0
2003/4/1 16:45,0.062307057,0,0,0,9.146676,0,0,0
2003/4/1 17:00,0.033488011,0,0,0,4.91604,0,0,0
2003/4/1 17:15,0.076314033,0,0,0,11.2029,0,0,0
2003/4/1 17:30,0.081143951,0,0.01449,0,11.911932,0,2.127132,0
2003/4/1 17:45,0.063433978,0,0,0,9.312108,0,0,0
2003/4/1 18:00,0.103040027,0,0,0,15.126276,0,0,0
2003/4/1 18:15,0.080661008,0,0,0,11.841036,0,0,0
2003/4/1 18:30,0.103845041,0,0,0,15.244452,0,0,0
2003/4/1 18:45,0.094667984,0,0,0,13.89726,0,0,0
2003/4/1 19:00,0.070195995,0,0,0,10.304772,0,0,0
2003/4/1 19:15,0.104489019,0,0,0,15.338988,0,0,0
2003/4/1 19:30,0.096278011,0,0,0,14.133612,0,0,0
2003/4/1 19:45,0.079534005,0,0.448224033,0,11.675592,0,65.799288,0
2003/4/1 20:00,0.103362016,0,0.699866975,0,15.173544,0,102.740472,0
2003/4/1 20:15,0.099820054,0,0.071483951,0,14.653584,0,10.493844,0
2003/4/1 20:30,0.094184959,0,0.098532016,0,13.826352,0,14.4645,0
2003/4/1 20:45,0.127512098,0,0.065044087,0,18.718776,0,9.548472,0
2003/4/1 21:00,0.091608965,0,0.065044087,0,13.448196,0,9.548472,0
2003/4/1 21:15,0.111251035,0,0,0,16.331652,0,0,0
2003/4/1 21:30,0.106903978,0,0,0,15.693504,0,0,0
2003/4/1 21:45,0.088388992,0,0.068425095,0,12.975504,0,10.044804,0
2003/4/1 22:00,0.108192016,0,0,0,15.882588,0,0,0
2003/4/1 22:15,0.109962997,0,0.03107297,0,16.142568,0,4.561512,0
2003/4/1 22:30,0.109479973,0,0.03381,0,16.07166,0,4.963308,0
2003/4/1 22:45,0.081144033,0,0,0,11.911944,0,0,0
2003/4/1 23:00,0.07937297,0,0.047817057,0,11.651952,0,7.019544,0
2003/4/1 23:15,0.106420954,0,0.021735041,0,15.622596,0,3.190704,0
2003/4/1 23:30,0.10899703,0,0,0,16.000764,0,0,0
2003/4/1 23:45,0.118979019,0,0.045885041,0,17.46612,0,6.735924,0
2003/4/2 0:00,0.125901989,0,0.26565,0,18.482412,0,38.99742,0
2003/4/2 0:15,0.10352297,0,0.043147929,0,15.197172,0,6.334116,0
2003/4/2 0:30,0.099659019,0,0,0,14.629944,0,0,0
2003/4/2 0:45,0.115598011,0,0.019963978,0,16.969788,0,2.930712,0
2003/4/2 1:00,0.10352297,0,0.000483025,0,15.197172,0,0.070908,0
2003/4/2 1:15,0.103523052,0,0,0,15.197184,0,0,0
2003/4/2 1:30,0.127834005,0,0.049427003,0,18.766032,0,7.255884,0
2003/4/2 1:45,0.103684005,0,0,0,15.220812,0,0,0
2003/4/2 2:00,0.10899703,0,0,0,16.000764,0,0,0
2003/4/2 2:15,0.127994959,0,0,0,18.78966,0,0,0
2003/4/2 2:30,0.112699946,0,0,0,16.544352,0,0,0
2003/4/2 2:45,0.11801297,0,0,0,17.324304,0,0,0
2003/4/2 3:00,0.127994959,0,0,0,18.78966,0,0,0
2003/4/2 3:15,0.102073978,0,0,0,14.98446,0,0,0
2003/4/2 3:30,0.12831703,0,0,0,18.83694,0,0,0
2003/4/2 3:45,0.099498065,0,0,0,14.606316,0,0,0
2003/4/2 4:00,0.11318297,0,0,0,16.61526,0,0,0
2003/4/2 4:15,0.12831703,0,0,0,18.83694,0,0,0
2003/4/2 4:30,0.12831703,0,0,0,18.83694,0,0,0
2003/4/2 4:45,0.125258011,0,0,0,18.387876,0,0,0
2003/4/2 5:00,0.105616022,0,0,0,15.504432,0,0,0
2003/4/2 5:15,0.12831703,0,0,0,18.83694,0,0,0
2003/4/2 5:30,0.12831703,0,0,0,18.83694,0,0,0
2003/4/2 5:45,0.12831703,0,0,0,18.83694,0,0,0
2003/4/2 6:00,0.127994959,0,0,0,18.78966,0,0,0
2003/4/2 6:15,0.102396049,0,0,0,15.03174,0,0,0
2003/4/2 6:30,0.099015041,0,0,0,14.535408,0,0,0
2003/4/2 6:45,0.098209946,0,0,0,14.41722,0,0,0
2003/4/2 7:00,0.078407003,0,0,0,11.510148,0,0,0
2003/4/2 7:15,0.094829019,0,0,0,13.9209,0,0,0
2003/4/2 7:30,0.095473079,0,0,0,14.015448,0,0,0
2003/4/2 7:45,0.106581907,0,0,0,15.646224,0,0,0
2003/4/2 8:00,0.073899074,0,0,0,10.848384,0,0,0
2003/4/2 8:15,0.098210027,0,0,0,14.417232,0,0,0
2003/4/2 8:30,0.078890027,0,0.011270027,0,11.581056,0,1.65444,0
2003/4/2 8:45,0.078407003,0,0,0,11.510148,0,0,0
2003/4/2 9:00,0.054739946,0,0,0,8.035824,0,0,0
2003/4/2 9:15,0.042503951,0,0,0,6.23958,0,0,0
2003/4/2 9:30,0.049910027,0,0.011914005,0,7.326792,0,1.748976,0
2003/4/2 9:45,0.068585967,0,0,0,10.06842,0,0,0
2003/4/2 10:00,0.073415967,0,0,0,10.777464,0,0,0
2003/4/2 10:15,0.059892016,0,0.22218,0,8.792148,0,32.616024,0
2003/4/2 10:30,0.05377406,0,0.151984005,0,7.894032,0,22.311252,0
2003/4/2 10:45,0.053451989,0,0.010625967,0,7.846752,0,1.559892,0
2003/4/2 11:00,0.053613025,0,0.066654033,0,7.870392,0,9.784812,0
2003/4/2 11:15,0.050393052,0,0,0,7.3977,0,0,0
2003/4/2 11:30,0.044758038,0,0.021735041,0,6.57048,0,3.190704,0
2003/4/2 11:45,0.071001008,0,0,0,10.422948,0,0,0
2003/4/2 12:00,0.043309046,0,0,0,6.357768,0,0,0
2003/4/2 12:15,0.043308965,0,0,0,6.357756,0,0,0
2003/4/2 12:30,0.043470082,0,0,0,6.381408,0,0,0
2003/4/2 12:45,0.050715041,0,0,0,7.444968,0,0,0
2003/4/2 13:00,0.053451989,0,0,0,7.846752,0,0,0
2003/4/2 13:15,0.05313,0,0,0,7.799484,0,0,0
2003/4/2 13:30,0.05313,0,0,0,7.799484,0,0,0
2003/4/2 13:45,0.072288965,0,0,0,10.61202,0,0,0
2003/4/2 14:00,0.052646975,0,0,0,7.728576,0,0,0
2003/4/2 14:15,0.052486022,0,0,0,7.704948,0,0,0
2003/4/2 14:30,0.054740027,0,0,0,8.035836,0,0,0
2003/4/2 14:45,0.04347,0,0,0,6.381396,0,0,0
2003/4/2 15:00,0.073255014,0,0,0,10.753836,0,0,0
2003/4/2 15:15,0.052325068,0,0,0,7.68132,0,0,0
2003/4/2 15:30,0.069874005,0,0,0,10.257504,0,0,0
2003/4/2 15:45,0.04347,0,0,0,6.381396,0,0,0
2003/4/2 16:00,0.049266049,0,0,0,7.232256,0,0,0
2003/4/2 16:15,0.100786022,0,0.005313025,0,14.795388,0,0.779952,0
2003/4/2 16:30,0.047172997,0,0,0,6.924996,0,0,0
2003/4/2 16:45,0.047656104,0,0,0,6.995916,0,0,0
2003/4/2 17:00,0.086457057,0,0,0,12.691896,0,0,0
2003/4/2 17:15,0.05522297,0,0,0,8.106732,0,0,0
2003/4/2 17:30,0.053935014,0,0,0,7.91766,0,0,0
2003/4/2 17:45,0.090159973,0,0,0,13.235484,0,0,0
2003/4/2 18:00,0.072288965,0,0,0,10.61202,0,0,0
2003/4/2 18:15,0.045724087,0,0,0,6.712296,0,0,0
2003/4/2 18:30,0.074865041,0,0.01449,0,10.990188,0,2.127132,0
2003/4/2 18:45,0.092575014,0,0,0,13.590012,0,0,0
2003/4/2 19:00,0.059570027,0,0,0,8.74488,0,0,0
2003/4/2 19:15,0.047817057,0,0,0,7.019544,0,0,0
2003/4/2 19:30,0.120911035,0,0,0,17.74974,0,0,0
2003/4/2 19:45,0.069552016,0,0,0,10.210236,0,0,0
2003/4/2 20:00,0.047977929,0,0,0,7.04316,0,0,0
2003/4/2 20:15,0.099497984,0,0,0,14.606304,0,0,0
2003/4/2 20:30,0.0483,0,0,0,7.09044,0,0,0
2003/4/2 20:45,0.064560981,0,0,0,9.477552,0,0,0
2003/4/2 21:00,0.098210027,0,0.014811989,0,14.417232,0,2.1744,0
2003/4/2 21:15,0.07518703,0,0,0,11.037456,0,0,0
2003/4/2 21:30,0.087906049,0,0.005635014,0,12.904608,0,0.82722,0
2003/4/2 21:45,0.06617109,0,0,0,9.713916,0,0,0
2003/4/2 22:00,0.096116975,0,0,0,14.109972,0,0,0
2003/4/2 22:15,0.071967057,0,0,0,10.564764,0,0,0
2003/4/2 22:30,0.065365995,0,0,0,9.595728,0,0,0
2003/4/2 22:45,0.058603978,0,0.083880981,0,8.603064,0,12.313728,0
2003/4/2 23:00,0.111411989,0,0.000483025,0,16.35528,0,0.070908,0
2003/4/2 23:15,0.068907956,0,0,0,10.115688,0,0,0
2003/4/2 23:30,0.082593025,0,0,0,12.124656,0,0,0
2003/4/2 23:45,0.107065014,0,0,0,15.717144,0,0,0
2003/4/3 0:00,0.102718038,0,0,0,15.079008,0,0,0
2003/4/3 0:15,0.102557003,0,0,0,15.055368,0,0,0
2003/4/3 0:30,0.098370981,0,0,0,14.44086,0,0,0
2003/4/3 0:45,0.07454297,0,0,0,10.942908,0,0,0
2003/4/3 1:00,0.104489019,0,0,0,15.338988,0,0,0
2003/4/3 1:15,0.087261989,0,0,0,12.81006,0,0,0
2003/4/3 1:30,0.094990054,0,0,0,13.94454,0,0,0
2003/4/3 1:45,0.100624986,0,0,0,14.771748,0,0,0
2003/4/3 2:00,0.111572943,0,0,0,16.378908,0,0,0
2003/4/3 2:15,0.090160054,0,0,0,13.235496,0,0,0
2003/4/3 2:30,0.091126104,0,0,0,13.377312,0,0,0
2003/4/3 2:45,0.094668065,0,0,0,13.897272,0,0,0
2003/4/3 3:00,0.09450703,0,0.013684986,0,13.873632,0,2.008956,0
2003/4/3 3:15,0.099819973,0,0,0,14.653572,0,0,0
2003/4/3 3:30,0.10352297,0,0,0,15.197172,0,0,0
2003/4/3 3:45,0.102557003,0,0,0,15.055368,0,0,0
2003/4/3 4:00,0.102718038,0,0,0,15.079008,0,0,0
2003/4/3 4:15,0.105294033,0,0,0,15.457164,0,0,0
2003/4/3 4:30,0.103362016,0,0,0,15.173544,0,0,0
2003/4/3 4:45,0.104005995,0,0,0,15.26808,0,0,0
2003/4/3 5:00,0.10352297,0,0,0,15.197172,0,0,0
2003/4/3 5:15,0.112217003,0,0,0,16.473456,0,0,0
2003/4/3 5:30,0.10207406,0,0,0,14.984472,0,0,0
2003/4/3 5:45,0.114954033,0,0.015295014,0,16.875252,0,2.245308,0
2003/4/3 6:00,0.103362016,0,0.000321989,0,15.173544,0,0.047268,0
2003/4/3 6:15,0.104649973,0,0,0,15.362616,0,0,0
2003/4/3 6:30,0.109480054,0,0,0,16.071672,0,0,0
2003/4/3 6:45,0.103200981,0,0,0,15.149904,0,0,0
2003/4/3 7:00,0.103844959,0,0,0,15.24444,0,0,0
2003/4/3 7:15,0.099497984,0,0,0,14.606304,0,0,0
2003/4/3 7:30,0.053291035,0,0,0,7.823124,0,0,0
2003/4/3 7:45,0.050554005,0,0.034937003,0,7.421328,0,5.128752,0
2003/4/3 8:00,0.05313,0,0.128961008,0,7.799484,0,18.931476,0
2003/4/3 8:15,0.078568038,0,0.000321989,0,11.533788,0,0.047268,0
2003/4/3 8:30,0.103362016,0,0.013524033,0,15.173544,0,1.985328,0
2003/4/3 8:45,0.053934932,0,0,0,7.917648,0,0,0
2003/4/3 9:00,0.053451989,0,0,0,7.846752,0,0,0
2003/4/3 9:15,0.052164033,0,0,0,7.65768,0,0,0
2003/4/3 9:30,0.051359019,0,0,0,7.539504,0,0,0
2003/4/3 9:45,0.050875995,0,0,0,7.468596,0,0,0
2003/4/3 10:00,0.050071063,0,0,0,7.350432,0,0,0
2003/4/3 10:15,0.049427003,0,0,0,7.255884,0,0,0
2003/4/3 10:30,0.054417956,0,0,0,7.988556,0,0,0
2003/4/3 10:45,0.056994033,0,0,0,8.366724,0,0,0
2003/4/3 11:00,0.056349973,0,0,0,8.272176,0,0,0
2003/4/3 11:15,0.055223052,0,0.015133978,0,8.106744,0,2.221668,0
2003/4/3 11:30,0.054901063,0,0,0,8.059476,0,0,0
2003/4/3 11:45,0.054418038,0,0,0,7.988568,0,0,0
2003/4/3 12:00,0.054418038,0,0,0,7.988568,0,0,0
2003/4/3 12:15,0.053773978,0,0,0,7.89402,0,0,0
2003/4/3 12:30,0.053935014,0,0,0,7.91766,0,0,0
2003/4/3 12:45,0.044918992,0,0,0,6.594108,0,0,0
2003/4/3 13:00,0.043631035,0,0,0,6.405036,0,0,0
2003/4/3 13:15,0.043470082,0,0,0,6.381408,0,0,0
2003/4/3 13:30,0.042986975,0,0,0,6.310488,0,0,0
2003/4/3 13:45,0.042182044,0,0,0,6.192324,0,0,0
2003/4/3 14:00,0.045402016,0,0,0,6.665016,0,0,0
2003/4/3 14:15,0.051359019,0,0,0,7.539504,0,0,0
2003/4/3 14:30,0.087745014,0,0,0,12.880968,0,0,0
2003/4/3 14:45,0.043148011,0,0,0,6.334128,0,0,0
2003/4/3 15:00,0.056994033,0,0.015133978,0,8.366724,0,2.221668,0
2003/4/3 15:15,0.039123025,0,0,0,5.74326,0,0,0
2003/4/3 15:30,0.045240981,0,0,0,6.641376,0,0,0
2003/4/3 15:45,0.075026076,0,0,0,11.013828,0,0,0
2003/4/3 16:00,0.066492997,0,0,0,9.761172,0,0,0
2003/4/3 16:15,0.047817057,0,0,0,7.019544,0,0,0
2003/4/3 16:30,0.064722016,0,0,0,9.501192,0,0,0
2003/4/3 16:45,0.052486022,0,0,0,7.704948,0,0,0
2003/4/3 17:00,0.054900981,0,0,0,8.059464,0,0,0
2003/4/3 17:15,0.050070981,0,0,0,7.35042,0,0,0
2003/4/3 17:30,0.082110082,0,0,0,12.05376,0,0,0
2003/4/3 17:45,0.070034959,0,0,0,10.281132,0,0,0
2003/4/3 18:00,0.070035041,0,0,0,10.281144,0,0,0
2003/4/3 18:15,0.056994033,0,0,0,8.366724,0,0,0
2003/4/3 18:30,0.061824033,0,0,0,9.075768,0,0,0
2003/4/3 18:45,0.08967703,0,0.015778038,0,13.164588,0,2.316216,0
2003/4/3 19:00,0.077440954,0,0,0,11.368332,0,0,0
2003/4/3 19:15,0.062467929,0,0,0,9.170292,0,0,0
2003/4/3 19:30,0.092896921,0,0,0,13.637268,0,0,0
2003/4/3 19:45,0.083236921,0,0,0,12.21918,0,0,0
2003/4/3 20:00,0.074704005,0,0,0,10.966548,0,0,0
2003/4/3 20:15,0.094989973,0,0,0,13.944528,0,0,0
2003/4/3 20:30,0.071484033,0,0,0,10.493856,0,0,0
2003/4/3 20:45,0.099336948,0,0.005957003,0,14.582664,0,0.874488,0
2003/4/3 21:00,0.086135068,0,0,0,12.644628,0,0,0
2003/4/3 21:15,0.10416703,0,0.009981989,0,15.29172,0,1.465356,0
2003/4/3 21:30,0.076152997,0,0,0,11.17926,0,0,0
2003/4/3 21:45,0.111572943,0,0.016261063,0,16.378908,0,2.387124,0
2003/4/3 22:00,0.10416703,0,0.714839918,0,15.29172,0,104.9385,0
2003/4/3 22:15,0.10416703,0,0.426489074,0,15.29172,0,62.608596,0
2003/4/3 22:30,0.085652044,0,0.065527112,0,12.57372,0,9.61938,0
2003/4/3 22:45,0.078085014,0,0.086457057,0,11.46288,0,12.691896,0
2003/4/3 23:00,0.100464033,0,0.065044087,0,14.74812,0,9.548472,0
2003/4/3 23:15,0.075831008,0,0.176295041,0,11.131992,0,25.880112,0
2003/4/3 23:30,0.111733978,0,0.153754986,0,16.402548,0,22.571232,0
2003/4/3 23:45,0.128155995,0,0,0,18.8133,0,0,0
2003/4/4 0:00,0.139587057,0,0.042664986,0,20.49138,0,6.26322,0
2003/4/4 0:15,0.127834005,0,0.061824033,0,18.766032,0,9.075768,0
2003/4/4 0:30,0.128155995,0,0.137655041,0,18.8133,0,20.20776,0
2003/4/4 0:45,0.128155995,0,0,0,18.8133,0,0,0
2003/4/4 1:00,0.128155995,0,0,0,18.8133,0,0,0
2003/4/4 1:15,0.12831703,0,0,0,18.83694,0,0,0
2003/4/4 1:30,0.12831703,0,0,0,18.83694,0,0,0
2003/4/4 1:45,0.12831703,0,0,0,18.83694,0,0,0
2003/4/4 2:00,0.12622406,0,0,0,18.529692,0,0,0
2003/4/4 2:15,0,0,0,0,0,0,0,0
2003/4/4 2:30,0,0,0,0,0,0,0,0
2003/4/4 2:45,0,0,0,0,0,0,0,0
2003/4/4 3:00,0,0,0,0,0,0,0,0
2003/4/4 3:15,0,0,0,0,0,0,0,0
2003/4/4 3:30,0,0,0,0,0,0,0,0
2003/4/4 3:45,0,0,0,0,0,0,0,0
2003/4/4 4:00,0,0,0,0,0,0,0,0
2003/4/4 4:15,0,0,0,0,0,0,0,0
2003/4/4 4:30,0,0,0,0,0,0,0,0
2003/4/4 4:45,0.08146594,0,0.015938992,0,11.9592,0,2.339844,0
2003/4/4 5:00,0.128960926,0,0,0,18.931464,0,0,0
2003/4/4 5:15,0.128799973,0,0,0,18.907836,0,0,0
2003/4/4 5:30,0.128960926,0,0,0,18.931464,0,0,0
2003/4/4 5:45,0.128799973,0,0,0,18.907836,0,0,0
2003/4/4 6:00,0.128960926,0,0,0,18.931464,0,0,0
2003/4/4 6:15,0.128960926,0,0,0,18.931464,0,0,0
2003/4/4 6:30,0.128639019,0,0,0,18.884208,0,0,0
2003/4/4 6:45,0.128478065,0,0,0,18.86058,0,0,0
2003/4/4 7:00,0.128478065,0,0,0,18.86058,0,0,0
2003/4/4 7:15,0.121716049,0,0.009338011,0,17.867916,0,1.37082,0
2003/4/4 7:30,0,0,0.000483025,0,0,0,0.070908,0
2003/4/4 7:45,0.062950954,0,0.122682016,0,9.2412,0,18.00972,0
2003/4/4 8:00,0.113665995,0,0.095794986,0,16.686168,0,14.062704,0
2003/4/4 8:15,0.127190027,0,0.015938992,0,18.671496,0,2.339844,0
2003/4/4 8:30,0.126867956,0,0.013524033,0,18.624216,0,1.985328,0
2003/4/4 8:45,0.107708992,0,0.060858065,0,15.81168,0,8.933964,0
2003/4/4 9:00,0.127028992,0,0.010625967,0,18.647856,0,1.559892,0
2003/4/4 9:15,0.112055967,0,0,0,16.449816,0,0,0
2003/4/4 9:30,0.126867956,0,0,0,18.624216,0,0,0
2003/4/4 9:45,0.126867956,0,0,0,18.624216,0,0,0
2003/4/4 10:00,0.126867956,0,0,0,18.624216,0,0,0
2003/4/4 10:15,0.127028992,0,0,0,18.647856,0,0,0
2003/4/4 10:30,0.109157984,0,0,0,16.024392,0,0,0
2003/4/4 10:45,0.102557003,0,0,0,15.055368,0,0,0
2003/4/4 11:00,0.10207406,0,0,0,14.984472,0,0,0
2003/4/4 11:15,0.081305068,0,0.015133978,0,11.935584,0,2.221668,0
2003/4/4 11:30,0.096921989,0,0.000321989,0,14.228148,0,0.047268,0
2003/4/4 11:45,0.09241406,0,0,0,13.566384,0,0,0
2003/4/4 12:00,0.100947057,0,0,0,14.819028,0,0,0
2003/4/4 12:15,0.060858065,0,0,0,8.933964,0,0,0
2003/4/4 12:30,0.098370981,0,0.35677594,0,14.44086,0,52.374708,0
2003/4/4 12:45,0.072611035,0,0,0,10.6593,0,0,0
2003/4/4 13:00,0.057637929,0,0,0,8.461248,0,0,0
2003/4/4 13:15,0.085812997,0,0,0,12.597348,0,0,0
2003/4/4 13:30,0.127028992,0,0,0,18.647856,0,0,0
2003/4/4 13:45,0.071644986,0,0,0,10.517484,0,0,0
2003/4/4 14:00,0.096278011,0,0,0,14.133612,0,0,0
2003/4/4 14:15,0.127028992,0,0,0,18.647856,0,0,0
2003/4/4 14:30,0.097243978,0,0,0,14.275416,0,0,0
2003/4/4 14:45,0.127190027,0,0,0,18.671496,0,0,0
2003/4/4 15:00,0.126706921,0,0,0,18.600576,0,0,0
2003/4/4 15:15,0.11801297,0,0,0,17.324304,0,0,0
2003/4/4 15:30,0.108192016,0,0,0,15.882588,0,0,0
2003/4/4 15:45,0.125096975,0,0,0,18.364236,0,0,0
2003/4/4 16:00,0.103362098,0,0,0,15.173556,0,0,0
2003/4/4 16:15,0.102718038,0,0,0,15.079008,0,0,0
2003/4/4 16:30,0.107387003,0,0,0,15.764412,0,0,0
2003/4/4 16:45,0.122843052,0,0,0,18.03336,0,0,0
2003/4/4 17:00,0.116563978,0,0,0,17.111592,0,0,0
2003/4/4 17:15,0.113505041,0,0,0,16.66254,0,0,0
2003/4/4 17:30,0.127190027,0,0.015617003,0,18.671496,0,2.292576,0
2003/4/4 17:45,0.127351063,0,0,0,18.695136,0,0,0
2003/4/4 18:00,0.070035041,0,0,0,10.281144,0,0,0
2003/4/4 18:15,0.052003079,0,0.119944986,0,7.634052,0,17.607924,0
2003/4/4 18:30,0.091930954,0,0,0,13.495464,0,0,0
2003/4/4 18:45,0.110768011,0,0,0,16.260744,0,0,0
2003/4/4 19:00,0.055384005,0,0,0,8.130372,0,0,0
2003/4/4 19:15,0.07309406,0,0,0,10.730208,0,0,0
2003/4/4 19:30,0.108835995,0,0.015938992,0,15.977124,0,2.339844,0
2003/4/4 19:45,0.075025995,0,0.06697594,0,11.013816,0,9.832068,0
2003/4/4 20:00,0.045240981,0,0.072289046,0,6.641376,0,10.612032,0
2003/4/4 20:15,0.093218992,0,0.016100027,0,13.684548,0,2.363484,0
2003/4/4 20:30,0.068586049,0,0,0,10.068432,0,0,0
2003/4/4 20:45,0.08211,0,0.241178011,0,12.053748,0,35.404932,0
2003/4/4 21:00,0.057638011,0,1.61E-04,0,8.46126,0,0.02364,0
2003/4/4 21:15,0.08758406,0,0,0,12.85734,0,0,0
2003/4/4 21:30,0.096922071,0,0,0,14.22816,0,0,0
2003/4/4 21:45,0.057960082,0,0,0,8.50854,0,0,0
2003/4/4 22:00,0.114953951,0,0.024471989,0,16.87524,0,3.592488,0
2003/4/4 22:15,0.071484033,0,0.025760027,0,10.493856,0,3.781572,0
2003/4/4 22:30,0.082593025,0,0.215418065,0,12.124656,0,31.623372,0
2003/4/4 22:45,0.097888038,0,0,0,14.369964,0,0,0
2003/4/4 23:00,0.064561063,0,0,0,9.477564,0,0,0
2003/4/4 23:15,0.127673052,0,0,0,18.742404,0,0,0
2003/4/4 23:30,0.069552016,0,0,0,10.210236,0,0,0
2003/4/4 23:45,0.127673052,0,0.009498965,0,18.742404,0,1.394448,0
2003/4/5 0:00,0.051842044,0,0.067458965,0,7.610412,0,9.902976,0
2003/4/5 0:15,0.110284986,0,0.000483025,0,16.189836,0,0.070908,0
2003/4/5 0:30,0.057799046,0,0,0,8.4849,0,0,0
2003/4/5 0:45,0.10481109,0,0,0,15.386268,0,0,0
2003/4/5 1:00,0.086618011,0,0,0,12.715524,0,0,0
2003/4/5 1:15,0.103844959,0,0,0,15.24444,0,0,0
2003/4/5 1:30,0.127834005,0,0,0,18.766032,0,0,0
2003/4/5 1:45,0.127834005,0,0,0,18.766032,0,0,0
2003/4/5 2:00,0.088228038,0,0,0,12.951876,0,0,0
2003/4/5 2:15,0.084203052,0,0,0,12.361008,0,0,0
2003/4/5 2:30,0.073577003,0,0,0,10.801104,0,0,0
2003/4/5 2:45,0.087745014,0,0,0,12.880968,0,0,0
2003/4/5 3:00,0.074060027,0,0,0,10.872012,0,0,0
2003/4/5 3:15,0.102395967,0,0,0,15.031728,0,0,0
2003/4/5 3:30,0.073577003,0,0,0,10.801104,0,0,0
2003/4/5 3:45,0.070839973,0,0,0,10.399308,0,0,0
2003/4/5 4:00,0.102718038,0,0.015455967,0,15.079008,0,2.268936,0
2003/4/5 4:15,0.07937297,0,0,0,11.651952,0,0,0
2003/4/5 4:30,0.07245,0,0,0,10.63566,0,0,0
2003/4/5 4:45,0.103200981,0,0,0,15.149904,0,0,0
2003/4/5 5:00,0.070195995,0,0,0,10.304772,0,0,0
2003/4/5 5:15,0.076958011,0,0,0,11.297436,0,0,0
2003/4/5 5:30,0.097243978,0,0,0,14.275416,0,0,0
2003/4/5 5:45,0.096278011,0,0,0,14.133612,0,0,0
2003/4/5 6:00,0.078245967,0,0,0,11.486508,0,0,0
2003/4/5 6:15,0.079212016,0,0,0,11.628324,0,0,0
2003/4/5 6:30,0.094506948,0,0,0,13.87362,0,0,0
2003/4/5 6:45,0.08484703,0,0,0,12.455544,0,0,0
2003/4/5 7:00,0.07180594,0,0.015778038,0,10.541112,0,2.316216,0
2003/4/5 7:15,0.089516076,0,0,0,13.14096,0,0,0
2003/4/5 7:30,0.078890027,0,0,0,11.581056,0,0,0
2003/4/5 7:45,0.127512016,0,0,0,18.718764,0,0,0
2003/4/5 8:00,0.127351063,0,0,0,18.695136,0,0,0
2003/4/5 8:15,0.092897003,0,0,0,13.63728,0,0,0
2003/4/5 8:30,0.127834005,0,0,0,18.766032,0,0,0
2003/4/5 8:45,0.127512098,0,0,0,18.718776,0,0,0
2003/4/5 9:00,0.127512098,0,0,0,18.718776,0,0,0
2003/4/5 9:15,0.127028992,0,0.009981989,0,18.647856,0,1.465356,0
2003/4/5 9:30,0.127028992,0,0,0,18.647856,0,0,0
2003/4/5 9:45,0.127028992,0,0,0,18.647856,0,0,0
2003/4/5 10:00,0.127190027,0,0.244236948,0,18.671496,0,35.853984,0
2003/4/5 10:15,0.093219074,0,0,0,13.68456,0,0,0
2003/4/5 10:30,0.127351063,0,0.016100027,0,18.695136,0,2.363484,0
2003/4/5 10:45,0.094185041,0,0.098693052,0,13.826364,0,14.48814,0
2003/4/5 11:00,0.096921989,0,0,0,14.228148,0,0,0
2003/4/5 11:15,0.108514087,0,0,0,15.929868,0,0,0
2003/4/5 11:30,0.071806022,0,0,0,10.541124,0,0,0
2003/4/5 11:45,0.052002997,0,0.020930027,0,7.63404,0,3.072528,0
2003/4/5 12:00,0.068103025,0,0.029623978,0,9.997524,0,4.3488,0
2003/4/5 12:15,0.066976022,0,0,0,9.83208,0,0,0
2003/4/5 12:30,0.061341008,0,0,0,9.00486,0,0,0
2003/4/5 12:45,0.040089074,0,0,0,5.885076,0,0,0
2003/4/5 13:00,0.079212016,0,0,0,11.628324,0,0,0
2003/4/5 13:15,0.068586049,0,0,0,10.068432,0,0,0
2003/4/5 13:30,0.128155995,0,0.006278992,0,18.8133,0,0.921756,0
2003/4/5 13:45,0.089354959,0,0,0,13.117308,0,0,0
2003/4/5 14:00,0.067137057,0,0,0,9.85572,0,0,0
2003/4/5 14:15,0.046689973,0,0.015133978,0,6.854088,0,2.221668,0
2003/4/5 14:30,0.101591035,0,0.000805014,0,14.913564,0,0.118176,0
2003/4/5 14:45,0.075025913,0,0,0,11.013804,0,0,0
2003/4/5 15:00,0.066654033,0,0,0,9.784812,0,0,0
2003/4/5 15:15,0.045563052,0,0,0,6.688656,0,0,0
2003/4/5 15:30,0.121071989,0,0,0,17.773368,0,0,0
2003/4/5 15:45,0.049105014,0,0,0,7.208616,0,0,0
2003/4/5 16:00,0.049748992,0,0,0,7.303152,0,0,0
2003/4/5 16:15,0.126707003,0,0,0,18.600588,0,0,0
2003/4/5 16:30,0.062629046,0,0,0,9.193944,0,0,0
2003/4/5 16:45,0.127994959,0,0,0,18.78966,0,0,0
2003/4/5 17:00,0.058281989,0,0.005795967,0,8.555796,0,0.850848,0
2003/4/5 17:15,0.077763025,0,0.01996406,0,11.415612,0,2.930724,0